Tracking 30258 objects as of 19-Feb-2025
HD Live streaming from Space Station
objects crossing your sky now

SL-8 R/B

Track SL-8 R/B now!
10-day predictions


NORAD ID: 23190
Int'l Code: 1994-045B
Perigee: 976.7 km
Apogee: 1,005.7 km
Inclination: 74.0 °
Period: 104.8 minutes
Semi major axis: 7362 km
RCS: 5.279 m2 (large)
Launch date: August 2, 1994
Source: Commonwealth of Independent States (former USSR) (CIS)
Launch site: PLESETSK MISSILE AND SPACE COMPLEX (PKMTR)

Note: This is a ROCKET BODY
Your satellite tracking list
Your tracking list is empty




NASA's NSSDC Master Catalog

Two Line Element Set (TLE):
1 23190U 94045B   25049.98277129  .00000079  00000-0  10723-3 0  9994
2 23190  74.0297 135.8763 0019714 212.9612 147.0280 13.74321639532353
Source of the keplerian elements: AFSPC